Location: Newark
(13.8625°N, 100.5144°E)
Time: 20:12:42
(UTC+00:00)

Hubble Space Telescope - Visible Passes

Search period start: 06 April 2020 00:00
Search period end: 16 April 2020 00:00
Orbit: 536 x 540 km, 28.5° (Epoch: 05 April)

Date Brightness Start Highest point End Pass type
(mag) Time Alt. Az. Time Alt. Az. Time Alt. Az.
06 Apr 2.9 13:04:29 10° WNW 13:07:25 19° NNW 13:08:43 16° N visible
07 Apr 3.2 12:54:20 10° NW 12:56:54 16° NNW 12:59:00 12° NNE visible
08 Apr 3.3 12:44:14 10° NW 12:46:25 14° NNW 12:48:35 10° NNE visible
09 Apr 3.4 12:34:12 10° NW 12:35:56 12° N 12:37:40 10° NNE visible
10 Apr 3.4 12:24:11 10° NNW 12:25:28 11° N 12:26:44 10° NNE visible
11 Apr 3.5 12:14:12 10° NNW 12:15:01 10° N 12:15:48 10° N visible
12 Apr 3.5 12:04:14 10° N 12:04:33 10° N 12:04:52 10° N visible
12 Apr 3.8 13:44:29 10° NNW 13:44:38 10° NNW 13:44:38 10° NNW visible
13 Apr 3.5 11:53:54 10° N 11:54:07 10° N 11:54:19 10° N visible
13 Apr 3.4 13:33:35 10° NNW 13:34:35 13° NNW 13:34:35 13° NNW visible
14 Apr 3.1 13:22:42 10° NNW 13:24:32 17° N 13:24:32 17° N visible
15 Apr 2.6 13:11:50 10° NW 13:14:30 22° N 13:14:30 22° N visible
